DELTA 1 DEB, 13531

Orbit data source: Space-Track

DELTA 1 DEB, 13531 is space debris in SSO originally from a launch on Thu, 29 Jul 1976 UTC launched from the Air Force Western Test Range (AFWTR). Debris objects in space refer to the collection of defunct objects orbiting the Earth. Examples of debris include non-operational satellites, rocket bodies, and fragments generated from explosions, collisions, or faulty payload assembly.

Loading next visibility...
Identifier
13531, 1976-077ED
Orbit
SSO
Country
Flag of USUS
Related business
Manufacturer
Unknown
Mission
Spacecraft
Bus & Motor
Unknown
Mass
Unknown
Launch date (UTC)
1976-07-29 (50 years ago)
Launch vehicle
Unknown
Launch site
Air Force Western Test Range (AFWTR)
Object type
Payload
Rocket body
Debris
Shape & HBR
Unknown shape, 0.1 m
Radar Cross Section
Medium (>0.1 m² and <1 m²)

Expand to show TLE details & history
Last TLE update: 3 days ago

TLE from 3 days ago
0 DELTA 1 DEB
1 13531U 76077ED  26171.38979727  .00000016  00000-0  60045-3 0  9994
2 13531 102.7528 149.6834 0141407 161.5320 357.0444 12.17159114956447
Epoch: 2026-06-20T09:21Z
TLE epoch observation values (Epoch: 2026-06-20T09:21:18.484Z)
Latitude
20.96357°
Longitude
-74.2986°
Altitude
1,494.386 km
Speed
7.169 km/s
True Right ascension
22h 18m 32s
True Declination
20° 51' 35"
Sunlit
Object was in daylight at epoch
Visualization orbit readout
Latitude
Unknown
Longitude
Unknown
Altitude
Unknown
Speed
Unknown
Apparent Right ascension
Unknown
Apparent Declination
Unknown
Sunlit
N/A
Visualization observer readout
Local Sidereal Time
13:18:29
Azimuth
Unknown
Elevation
Unknown
Doppler factor
Unknown
Orbital elements
Apogee altitude
1,715.442 km
Perigee altitude
1,489.736 km
Semi-major axis
7,980.726 km
Eccentricity
0.01414
Inclination
102.7528°
RAAN
149.6834°
Arg. of periapsis
161.532°
True anomaly
356.95935°
Mean anomaly
357.0444°
Eccentric anomaly
357.00203°
Mean motion
3.04424 °/min
Orbital period
118.26 mins
BSTAR
0.00060045
Loading maneuver chart data...
Computing Atmospheric mass density...
Loading historical data...
Loading historical data...
Loading historical data...
Loading historical data...
Loading historical data...
Loading historical data...
Loading historical data...

Documentation

Showing up to 5 results
|